Aeroporto :
LOGIN :

Iscrizione | Disclaimer

   EN    FR    IT 

 










Sommario :    VFR   VFR Marginale   IFR   IFR Intensivo   IFR Molto Intensivo
Visibilità : 
Base nubi : 
>= 8 km
>= 3000ft
5 / 8 km
1000 / 3000 ft
1500m / 5 km
500 / 1000 ft
800 / 1500m
200 / 500 ft
< 800m
< 200 ft
Simboli :   Temporali  Nebbia  Neve Forte  Precipitazioni Forti  Vento > 20 kt
SIGMETs :   Varie  Temporali  Ghiacco  Turbolenza  Onda orograficha  Ceneri Vulcaniche







- Altitudine del aeroporto : 1325 ft
- Codice IATA : EBU
- Carte del aeroporto


LFMH - St-Etienne Boutheon

ULTIMO METAR :
  • 230230Z AUTO VRB01KT CAVOK 05/05 Q1019 NOSIG

METARs OBSOLETI :
  • 230200Z AUTO 17002KT CAVOK 06/05 Q1019
  • 230130Z AUTO 16002KT CAVOK 06/05 Q1019
  • 230100Z AUTO 00000KT CAVOK 06/05 Q1019
  • 230030Z AUTO 00000KT CAVOK 07/06 Q1019
  • 230000Z AUTO 00000KT CAVOK 07/06 Q1019
  • 222330Z AUTO 00000KT CAVOK 08/07 Q1019

TAF TAF LFMH
Valido dal 23 a 03 ore il 24 a 03 ore UTC


230200Z 2303/2403 VRB02KT CAVOK
TEMPO 2312/2320 05005KT
ATIS : +33 4 77 36 17 51
Nessun NOTAM noto per questo aeroporto.



MetMap, La meteo Aeronautica in un colpo d'occhio ! - Copyright ORBIFLY Dicembre 2007 - Disclaimer

ORBIFLY MET'MAP TEAM :

Programmazione e sviluppo : Alexandra Zaïnal
Concezione e sviluppo : Baudouin d'Aumeries
Co-Programmazione e sviluppo : Marc-Olivier Méhu
Supporto tecnico e logistico : Manuel Goepfert
Aiuto per la traduzione : Arnaldo La Scala

Contatto : metmap@orbifly.com




FONTI E CREDITI :

   NOAA